Карточка аэропорта UOOO

Внимание!
Информация на этой странице в стадии наполнения.
Если вы не увидели какой-то информации, или заметили неточность - пожалуйста сообщите нам!
Спасибо!
Команда RU-STAFF
Название аэропортаАлыкель
Название аэропорта (англ.)Alykel
Превышение574 ft. (175 m.)
Координаты69°19.02', 87°19.02'
Высота перехода1200m
Эшелон переходаQFE>744:FL60;744>QFE>717:FL70;717>QFE:FL80
Коды ответчика5401-5427
Зона ОрВДКрасноярск РПИ (UNKL)
Данные METARUOOO 281800Z 20006MPS 7000 -SN DRSN OVC030 M15/M16 Q1034 R19/491034 NOSIG RMK QFE759/1012
Проноз погоды (TAF)UOOO 281658Z 2818/2918 17003G08MPS 6000 -SN BKN016 TEMPO 2818/2918 19008G13MPS 3200 -SN BLSN OVC011
NOTAMshow/hide NOTAM
AWOS   TABLE

Информация о ВПП

ВПП Длина ВПП (м.) Покрытие Курс ВПП Частота ILS
013430Бетон13109.5
193430Бетон193110.3

Диспетчерские позиции

Позывной Наименование органа УВД Частота
UOOO_TWRНорильск - Старт118.300
UOOO_GNDНорильск - Руление121.700
UOOO_APPНорильск - Круг120.400



Спутниковое изображение